| time (UTC) | temp F | wind direction | speed knots | gust knots | rain 1hr in | rain 24hr in | rain mn in | humidity % | barometer mb |
| 20260504173037 | 73 | 102 | 1.7 | 11.3 | 0.00 | 0.00 | 0.00 | 41 | 1016.6 |
| 20260504171536 | 73 | 182 | 1.7 | 7.0 | 0.00 | 0.00 | 0.00 | 42 | 1016.7 |
| 20260504081540 | 44 | 0 | 0.0 | 0.0 | 0.00 | 0.00 | 0.00 | 87 | 1017.5 |
| 20260504044536 | 50 | 278 | 0.0 | 1.7 | 0.00 | 0.00 | 0.00 | 78 | 1017.7 |
| 20260504043039 | 51 | 0 | 0.0 | 0.9 | 0.00 | 0.00 | 0.00 | 76 | 1017.5 |
| 20260504041537 | 52 | 279 | 0.0 | 1.7 | 0.00 | 0.00 | 0.00 | 75 | 1017.8 |
| 20260504040040 | 53 | 0 | 0.0 | 1.7 | 0.00 | 0.00 | 0.00 | 73 | 1017.7 |
| 20260504034538 | 54 | 278 | 0.0 | 1.7 | 0.00 | 0.00 | 0.00 | 72 | 1017.7 |
| 20260504033039 | 55 | 0 | 0.0 | 2.6 | 0.00 | 0.00 | 0.00 | 69 | 1017.6 |
| 20260504031541 | 57 | 286 | 0.0 | 5.2 | 0.00 | 0.00 | 0.00 | 64 | 1017.6 |
| 20260504030042 | 58 | 283 | 2.6 | 7.0 | 0.00 | 0.00 | 0.00 | 57 | 1017.5 |
| 20260504024537 | 59 | 273 | 1.7 | 7.8 | 0.00 | 0.01 | 0.00 | 57 | 1017.5 |
| 20260504023043 | 57 | 278 | 3.5 | 7.8 | 0.00 | 0.01 | 0.00 | 60 | 1017.2 |
| 20260504021539 | 55 | 203 | 0.0 | 4.3 | 0.00 | 0.01 | 0.00 | 67 | 1017.2 |
| 20260504020037 | 55 | 0 | 0.0 | 1.7 | 0.00 | 0.01 | 0.00 | 69 | 1017.1 |
| 20260504014552 | 56 | 181 | 0.0 | 1.7 | 0.00 | 0.01 | 0.00 | 67 | 1016.9 |
| 20260504013041 | 57 | 0 | 0.0 | 0.9 | 0.00 | 0.01 | 0.00 | 65 | 1016.7 |
| 20260504011539 | 58 | 0 | 0.9 | 1.7 | 0.00 | 0.01 | 0.00 | 63 | 1016.6 |
| 20260504010046 | 60 | 0 | 0.0 | 1.7 | 0.00 | 0.01 | 0.00 | 60 | 1016.5 |
| 20260504004538 | 62 | 181 | 0.0 | 2.6 | 0.00 | 0.01 | 0.00 | 58 | 1016.4 |
| 20260504003040 | 63 | 183 | 0.0 | 1.7 | 0.00 | 0.01 | 0.00 | 53 | 1016.3 |
| 20260504001551 | 65 | 184 | 0.9 | 2.6 | 0.00 | 0.01 | 0.00 | 51 | 1016.0 |
| 20260504000045 | 66 | 165 | 0.0 | 3.5 | 0.00 | 0.01 | 0.00 | 49 | 1015.9 |
| 20260503234539 | 67 | 0 | 0.9 | 2.6 | 0.00 | 0.01 | 0.00 | 46 | 1015.7 |
| 20260503233040 | 67 | 169 | 0.9 | 4.3 | 0.00 | 0.01 | 0.00 | 44 | 1015.7 |
| 20260503231542 | 68 | 232 | 1.7 | 6.1 | 0.00 | 0.01 | 0.00 | 42 | 1015.8 |
| 20260503230045 | 68 | 257 | 1.7 | 8.7 | 0.00 | 0.01 | 0.00 | 40 | 1015.9 |
| 20260503224544 | 69 | 153 | 0.9 | 7.0 | 0.00 | 0.08 | 0.00 | 39 | 1015.8 |
| 20260503223039 | 70 | 265 | 3.5 | 7.8 | 0.00 | 0.08 | 0.00 | 39 | 1016.0 |
| 20260503221547 | 70 | 167 | 1.7 | 9.6 | 0.00 | 0.08 | 0.00 | 40 | 1015.9 |
| 20260503220037 | 70 | 210 | 2.6 | 8.7 | 0.00 | 0.08 | 0.00 | 40 | 1016.1 |
| 20260503214542 | 70 | 224 | 3.5 | 9.6 | 0.00 | 0.08 | 0.00 | 39 | 1016.2 |
| 20260503213038 | 70 | 226 | 2.6 | 7.8 | 0.00 | 0.08 | 0.00 | 38 | 1016.3 |
| 20260503211538 | 70 | 181 | 1.7 | 9.6 | 0.00 | 0.08 | 0.00 | 42 | 1016.4 |
| 20260503210048 | 69 | 178 | 0.9 | 10.4 | 0.00 | 0.08 | 0.00 | 38 | 1016.5 |
| 20260503204546 | 70 | 257 | 4.3 | 12.2 | 0.00 | 0.08 | 0.00 | 40 | 1016.7 |
| 20260503203039 | 69 | 258 | 4.3 | 13.9 | 0.00 | 0.08 | 0.00 | 41 | 1016.9 |
| 20260503201538 | 69 | 121 | 0.9 | 9.6 | 0.00 | 0.08 | 0.00 | 39 | 1017.3 |
| 20260503200044 | 69 | 210 | 2.6 | 7.8 | 0.00 | 0.08 | 0.00 | 41 | 1017.7 |
| 20260503194537 | 69 | 253 | 2.6 | 12.2 | 0.00 | 0.08 | 0.00 | 41 | 1018.0 |
| 20260503193043 | 68 | 193 | 2.6 | 9.6 | 0.00 | 0.08 | 0.00 | 42 | 1018.5 |
| 20260503191542 | 68 | 245 | 3.5 | 9.6 | 0.00 | 0.08 | 0.00 | 44 | 1018.8 |
| 20260503190045 | 67 | 146 | 4.3 | 9.6 | 0.00 | 0.08 | 0.00 | 43 | 1018.8 |
| 20260503184537 | 67 | 311 | 0.9 | 8.7 | 0.00 | 0.08 | 0.00 | 46 | 1019.2 |
| 20260503183043 | 66 | 160 | 1.7 | 6.1 | 0.00 | 0.08 | 0.00 | 42 | 1019.3 |
| 20260503181538 | 66 | 207 | 2.6 | 10.4 | 0.00 | 0.08 | 0.00 | 44 | 1019.5 |
| 20260503180037 | 66 | 277 | 5.2 | 9.6 | 0.00 | 0.08 | 0.00 | 43 | 1019.5 |
| 20260503174537 | 65 | 122 | 2.6 | 7.8 | 0.00 | 0.08 | 0.00 | 43 | 1019.7 |